Terminal Aerodrome Forecast
Issued by NWS

Home | Current Version | Previous Version | Text Only | Print | Product List | Glossary On
Versions: 1 2 3 4 5 6 7 8 9 10 11 12 13 14 15 16 17 18 19 20 21 22 23 24 25 26 27 28 29 30 31 32 33 34 35 36 37 38 39 40 41 42 43 44 45 46 47
000
FTUS45 KGJT 201738
TAFVEL
TAF
KVEL 201738Z 2018/2118 09002KT P6SM BKN030 BKN040
     FM202000 VRB03KT P6SM OVC050
     FM210600 31006KT P6SM FEW040 OVC080
     FM211200 VRB02KT P6SM SCT020 OVC040=

USA.gov is the U.S. government's official web portal to all federal, state and local government web resources and services.